HR2RCH-13 Weather Reports


time (UTC)temp
F
wind
direction
speed
knots
gust
knots
rain 1hr
in
rain 24hr
in
rain mn
in
humidity
%
barometer
mb
20260502200047 0 228 4.3 14.8 0.00 0.00 0.00 1004.1
20260502194545 0 149 4.3 9.6 0.00 0.00 0.00 1004.2
20260502193046 0 146 4.3 8.7 0.00 0.00 0.00 1004.4
20260502191556 0 236 2.6 7.8 0.00 0.00 0.00 1004.6
20260502190046 0 123 3.5 7.8 0.00 0.00 0.00 1004.8
20260502184550 0 195 2.6 7.0 0.00 0.00 0.00 1005.1
20260502183047 0 274 1.7 6.1 0.00 0.00 0.00 1005.3
20260502181553 0 258 1.7 5.2 0.00 0.00 0.00 1005.5
20260502163101 0 248 2.6 8.7 0.00 0.00 0.00 1006.9
20260502161544 0 263 1.7 7.0 0.00 0.00 0.00 1007.2
20260502151550 0 274 1.7 8.7 0.00 0.00 0.00 1008.0
20260502123055 0 324 3.5 8.7 0.00 0.00 0.00 1007.2
20260502121545 0 10 3.5 12.2 0.00 0.00 0.00 1007.1
20260502114548 0 40 2.6 7.0 0.00 0.00 0.00 1006.7
20260502113050 0 354 3.5 7.0 0.00 0.00 0.00 1006.7
20260502111550 0 295 3.5 6.1 0.00 0.00 0.00 1006.6
20260502110047 0 33 3.5 7.8 0.00 0.00 0.00 1006.3
20260502104549 0 41 3.5 8.7 0.00 0.00 0.00 1006.2
20260502103045 0 335 2.6 7.0 0.00 0.00 0.00 1006.1
20260502101548 0 38 3.5 7.8 0.00 0.00 0.00 1006.0
20260502070048 0 0 0.0 0.9 0.00 0.00 0.00 1006.1
20260502064548 0 0 0.0 1.7 0.00 0.00 0.00 1006.1
20260502063100 0 74 0.0 1.7 0.00 0.00 0.00 1006.4
20260502061549 0 0 0.0 1.7 0.00 0.00 0.00 1006.4
20260502060049 0 63 0.9 1.7 0.00 0.00 0.00 1006.4
20260502054547 0 0 0.0 1.7 0.00 0.00 0.00 1006.4
20260502053056 0 71 1.7 2.6 0.00 0.00 0.00 1006.5
20260502051547 0 126 0.0 1.7 0.00 0.00 0.00 1006.6
20260502050051 0 0 0.0 1.7 0.00 0.00 0.00 1006.6
20260502044547 0 86 0.9 2.6 0.00 0.00 0.00 1006.8
20260502043056 0 0 0.9 1.7 0.00 0.00 0.00 1006.9
20260502041553 0 0 0.0 1.7 0.00 0.00 0.00 1006.9
20260502040045 0 0 0.0 1.7 0.00 0.00 0.00 1006.7
20260502034547 0 0 0.0 1.7 0.00 0.00 0.00 1006.6
20260502033047 0 6 0.9 2.6 0.00 0.00 0.00 1006.5
20260502031546 0 70 0.0 1.7 0.00 0.00 0.00 1006.2
20260502030049 0 0 0.0 1.7 0.00 0.00 0.00 1005.9
20260502024546 0 0 0.0 0.9 0.00 0.00 0.00 1005.9
20260502023049 0 0 0.0 3.5 0.00 0.00 0.00 1005.7
20260502021547 0 94 0.9 2.6 0.00 0.00 0.00 1005.7
20260502020053 0 120 1.7 4.3 0.00 0.00 0.00 1005.6
20260502014546 0 112 2.6 4.3 0.00 0.00 0.00 1005.5
20260502013051 0 168 1.7 4.3 0.00 0.00 0.00 1005.3
20260502011550 0 221 1.7 4.3 0.00 0.00 0.00 1005.2
20260502010045 0 156 1.7 8.7 0.00 0.00 0.00 1005.1
20260502004549 0 148 3.5 7.8 0.00 0.00 0.00 1004.9
20260502003044 0 166 2.6 7.8 0.00 0.00 0.00 1004.7
20260502001544 0 161 3.5 7.8 0.00 0.00 0.00 1004.6
20260502000058 0 218 4.3 10.4 0.00 0.00 0.00 1004.3
20260501234551 0 190 2.6 6.1 0.00 0.00 0.00 1004.1
20260501233052 0 191 6.1 11.3 0.00 0.00 0.00 1003.7
20260501231634 0 218 3.5 11.3 0.00 0.00 0.00 1003.6
20260501224604 0 104 5.2 9.6 0.00 0.00 0.00 1003.2
20260501223052 0 246 5.2 11.3 0.00 0.00 0.00 1002.9
20260501221604 0 196 4.3 15.6 0.00 0.00 0.00 1002.7
20260501220049 0 151 4.3 10.4 0.00 0.00 0.00 1002.7
20260501214544 0 198 4.3 11.3 0.00 0.00 0.00 1002.5
20260501213050 0 193 3.5 7.8 0.00 0.00 0.00 1002.6
20260501211604 0 204 5.2 11.3 0.00 0.00 0.00 1002.5
20260501210051 0 184 6.1 12.2 0.00 0.00 0.00 1002.5
20260501204549 0 173 2.6 9.6 0.00 0.00 0.00 1002.5
20260501203048 0 253 3.5 8.7 0.00 0.00 0.00 1002.8
20260501201549 0 179 3.5 7.8 0.00 0.00 0.00 1003.0